Time[GMT],salinity[psu](1m),sigma_t[kg/m^3](1m),conductivity[msiemens/cm](1m),temperature[C](1m)
2023-03-23 15:00,36.173,23.835,56.010,26.27
2023-03-23 16:00,36.162,23.812,56.050,26.32
2023-03-23 18:00,36.151,23.781,56.110,26.39
2023-03-23 19:00,36.158,23.783,56.130,26.40
2023-03-23 21:00,36.158,23.787,56.120,26.39
2023-03-23 22:00,36.160,23.798,56.090,26.36
2023-03-23 23:00,36.162,23.808,56.060,26.33
2023-03-24 00:00,36.169,23.814,56.070,26.33
2023-03-24 01:00,36.170,23.817,56.060,26.32
2023-03-24 02:00,36.170,23.821,56.050,26.31
2023-03-24 03:00,36.171,23.825,56.040,26.30
2023-03-24 04:00,36.156,23.810,56.030,26.31
2023-03-24 05:00,36.156,23.810,56.030,26.31
2023-03-24 06:00,36.164,23.819,56.030,26.30
2023-03-24 07:00,36.164,23.819,56.030,26.30
2023-03-24 08:00,36.157,23.817,56.010,26.29
2023-03-24 09:00,36.157,23.817,56.010,26.29
2023-03-24 10:00,36.157,23.821,56.000,26.28
2023-03-24 11:00,36.159,23.828,55.980,26.26
2023-03-24 12:00,36.159,23.832,55.970,26.25
2023-03-24 13:00,36.166,23.837,55.980,26.25
2023-03-24 14:00,36.172,23.832,56.020,26.28
2023-03-24 15:00,36.169,23.814,56.070,26.33
2023-03-24 16:00,36.167,23.803,56.100,26.36
2023-03-24 17:00,36.165,23.789,56.140,26.40
2023-03-24 18:00,,,,
2023-03-24 19:00,36.153,23.758,56.200,26.47
2023-03-24 20:00,36.152,23.751,56.220,26.49
2023-03-24 21:00,36.154,23.761,56.190,26.46
2023-03-24 22:00,,,,
2023-03-24 23:00,36.159,23.790,56.110,26.38
2023-03-25 00:00,,,,
2023-03-25 01:00,36.168,23.810,56.080,26.34
2023-03-25 02:00,,,,
2023-03-25 03:00,36.177,23.823,56.070,26.32
2023-03-25 04:00,36.177,23.823,56.070,26.32
2023-03-25 05:00,36.170,23.821,56.050,26.31
2023-03-25 06:00,36.154,23.803,56.050,26.33
2023-03-25 07:00,,,,
2023-03-25 08:00,36.156,23.814,56.020,26.30
2023-03-25 09:00,36.157,23.821,56.000,26.28
2023-03-25 10:00,36.157,23.821,56.000,26.28
2023-03-25 11:00,36.165,23.830,56.000,26.27
2023-03-25 12:00,,,,
2023-03-25 13:00,36.173,23.835,56.010,26.27
2023-03-25 14:00,36.186,23.839,56.050,26.29
2023-03-25 15:00,36.192,23.838,56.080,26.31
2023-03-25 16:00,36.196,23.825,56.140,26.36
2023-03-25 17:00,36.195,23.818,56.160,26.38
2023-03-25 18:00,36.186,23.801,56.180,26.41
2023-03-25 19:00,36.178,23.789,56.190,26.43
2023-03-25 20:00,36.164,23.785,56.150,26.41
2023-03-25 21:00,,,,
2023-03-25 22:00,36.172,23.790,56.160,26.41
2023-03-25 23:00,36.178,23.789,56.190,26.43
2023-03-26 00:00,,,,
2023-03-26 01:00,36.189,23.819,56.130,26.36
2023-03-26 02:00,36.198,23.832,56.120,26.34
2023-03-26 03:00,,,,
2023-03-26 04:00,,,,
2023-03-26 05:00,36.207,23.849,56.100,26.31
2023-03-26 06:00,36.207,23.852,56.090,26.30
2023-03-26 07:00,36.192,23.838,56.080,26.31
2023-03-26 08:00,36.193,23.841,56.070,26.30
2023-03-26 09:00,36.194,23.848,56.050,26.28
2023-03-26 10:00,36.201,23.854,56.060,26.28
2023-03-26 11:00,36.209,23.863,56.060,26.27
2023-03-26 12:00,36.210,23.867,56.050,26.26
2023-03-26 13:00,36.209,23.863,56.060,26.27
2023-03-26 14:00,36.222,23.863,56.110,26.30
2023-03-26 15:00,36.219,23.845,56.160,26.35
2023-03-26 16:00,36.223,23.832,56.220,26.40
2023-03-26 17:00,36.219,23.807,56.290,26.47
2023-03-26 18:00,36.218,23.800,56.310,26.49
2023-03-26 19:00,36.218,23.803,56.300,26.48
2023-03-26 20:00,36.218,23.800,56.310,26.49
2023-03-26 21:00,36.219,23.811,56.280,26.46
2023-03-26 22:00,36.214,23.816,56.240,26.43
2023-03-26 23:00,36.216,23.831,56.200,26.39
2023-03-27 00:00,36.218,23.841,56.170,26.36
2023-03-27 01:00,36.225,23.847,56.180,26.36
2023-03-27 02:00,36.234,23.860,56.170,26.34
2023-03-27 03:00,36.244,23.883,56.130,26.29
2023-03-27 04:00,36.237,23.878,56.120,26.29
2023-03-27 05:00,36.238,23.881,56.110,26.28
2023-03-27 06:00,36.238,23.881,56.110,26.28
2023-03-27 07:00,36.238,23.881,56.110,26.28
2023-03-27 08:00,36.238,23.881,56.110,26.28
2023-03-27 09:00,36.237,23.878,56.120,26.29
2023-03-27 10:00,,,,
2023-03-27 11:00,36.239,23.892,56.080,26.25
2023-03-27 12:00,36.241,23.899,56.060,26.23
2023-03-27 13:00,36.241,23.903,56.050,26.22
2023-03-27 14:00,36.239,23.892,56.080,26.25
2023-03-27 15:00,,,,
2023-03-27 16:00,36.232,23.849,56.200,26.37
2023-03-27 17:00,36.222,23.829,56.230,26.41
2023-03-27 18:00,36.221,23.818,56.260,26.44
2023-03-27 19:00,,,,
2023-03-27 20:00,,,,
2023-03-27 21:00,36.227,23.820,56.280,26.45
2023-03-27 22:00,36.221,23.822,56.250,26.43
2023-03-27 23:00,36.223,23.832,56.220,26.40
2023-03-28 00:00,36.209,23.825,56.190,26.39
2023-03-28 01:00,36.211,23.836,56.160,26.36
2023-03-28 02:00,36.213,23.847,56.130,26.33
2023-03-28 03:00,36.221,23.859,56.120,26.31
2023-03-28 04:00,,,,
2023-03-28 05:00,36.216,23.865,56.080,26.28
2023-03-28 06:00,36.223,23.870,56.090,26.28
2023-03-28 07:00,36.208,23.859,56.070,26.28
2023-03-28 08:00,36.215,23.861,56.090,26.29
2023-03-28 09:00,36.215,23.861,56.090,26.29
2023-03-28 10:00,36.223,23.870,56.090,26.28
2023-03-28 11:00,,,,
2023-03-28 12:00,36.216,23.868,56.070,26.27
2023-03-28 13:00,36.217,23.872,56.060,26.26
2023-03-28 14:00,36.223,23.870,56.090,26.28
2023-03-28 15:00,,,,
2023-03-28 16:00,36.218,23.841,56.170,26.36
2023-03-28 17:00,36.221,23.822,56.250,26.43
2023-03-28 18:00,36.210,23.791,56.310,26.50
2023-03-28 19:00,,,,
2023-03-28 20:00,36.206,23.769,56.370,26.56
2023-03-28 21:00,36.217,23.796,56.320,26.50
2023-03-28 22:00,36.212,23.805,56.270,26.46
2023-03-28 23:00,36.206,23.807,56.240,26.44
2023-03-29 00:00,,,,
2023-03-29 01:00,36.201,23.812,56.200,26.41
2023-03-29 02:00,36.195,23.818,56.160,26.38
2023-03-29 03:00,36.196,23.825,56.140,26.36
2023-03-29 04:00,36.204,23.830,56.150,26.36
2023-03-29 05:00,36.206,23.845,56.110,26.32
2023-03-29 06:00,36.205,23.841,56.120,26.33
2023-03-29 07:00,,,,
2023-03-29 08:00,36.205,23.841,56.120,26.33
2023-03-29 09:00,36.214,23.854,56.110,26.31
2023-03-29 10:00,36.213,23.850,56.120,26.32
2023-03-29 11:00,36.206,23.845,56.110,26.32
2023-03-29 12:00,36.213,23.847,56.130,26.33
2023-03-29 13:00,36.212,23.843,56.140,26.34
2023-03-29 14:00,36.204,23.834,56.140,26.35
2023-03-29 15:00,36.211,23.836,56.160,26.36
2023-03-29 16:00,36.216,23.831,56.200,26.39
2023-03-29 17:00,36.215,23.820,56.230,26.42
2023-03-29 18:00,36.221,23.818,56.260,26.44
2023-03-29 19:00,36.211,23.802,56.280,26.47
2023-03-29 20:00,36.210,23.794,56.300,26.49
2023-03-29 21:00,36.203,23.789,56.290,26.49
2023-03-29 22:00,36.211,23.798,56.290,26.48
2023-03-29 23:00,36.219,23.811,56.280,26.46
2023-03-30 00:00,36.219,23.807,56.290,26.47
2023-03-30 01:00,36.219,23.811,56.280,26.46
2023-03-30 02:00,36.213,23.809,56.260,26.45
2023-03-30 03:00,36.215,23.823,56.220,26.41
2023-03-30 04:00,36.216,23.831,56.200,26.39
2023-03-30 05:00,36.210,23.829,56.180,26.38
2023-03-30 06:00,36.210,23.832,56.170,26.37
2023-03-30 07:00,36.210,23.832,56.170,26.37
2023-03-30 08:00,36.211,23.836,56.160,26.36
2023-03-30 09:00,36.219,23.845,56.160,26.35
2023-03-30 10:00,36.217,23.834,56.190,26.38
2023-03-30 11:00,36.224,23.840,56.200,26.38
2023-03-30 14:00,36.222,23.825,56.240,26.42
2023-03-30 15:00,36.219,23.811,56.280,26.46
2023-03-30 16:00,36.216,23.789,56.340,26.52
2023-03-30 17:00,36.221,23.784,56.380,26.55
2023-03-30 18:00,36.218,23.800,56.310,26.49
2023-03-30 19:00,36.216,23.789,56.340,26.52
2023-03-30 20:00,36.221,23.784,56.380,26.55
2023-03-30 21:00,36.213,23.774,56.380,26.56
2023-03-30 22:00,36.229,23.793,56.380,26.54
2023-03-30 23:00,36.229,23.793,56.380,26.54
2023-03-31 00:00,36.230,23.800,56.360,26.52
2023-03-31 01:00,36.232,23.811,56.330,26.49
2023-03-31 02:00,36.232,23.811,56.330,26.49
2023-03-31 03:00,36.241,23.824,56.320,26.47
2023-03-31 04:00,36.233,23.818,56.310,26.47
2023-03-31 05:00,36.233,23.818,56.310,26.47
2023-03-31 07:00,36.227,23.820,56.280,26.45
2023-03-31 08:00,36.228,23.827,56.260,26.43
2023-03-31 09:00,36.237,23.840,56.250,26.41
2023-03-31 10:00,36.237,23.840,56.250,26.41
2023-03-31 11:00,36.231,23.842,56.220,26.39
2023-03-31 12:00,36.238,23.847,56.230,26.39
2023-03-31 13:00,36.230,23.834,56.240,26.41
2023-03-31 14:00,36.236,23.833,56.270,26.43
2023-03-31 15:00,36.228,23.823,56.270,26.44
2023-03-31 16:00,36.233,23.818,56.310,26.47
2023-03-31 17:00,36.231,23.807,56.340,26.50
2023-03-31 18:00,,,,
2023-03-31 19:00,36.236,23.798,56.390,26.54
2023-03-31 20:00,36.236,23.798,56.390,26.54
2023-03-31 21:00,,,,
2023-03-31 22:00,36.231,23.807,56.340,26.50
2023-03-31 23:00,36.232,23.811,56.330,26.49
2023-04-01 00:00,,,,
2023-04-01 01:00,36.228,23.823,56.270,26.44
2023-04-01 02:00,36.230,23.834,56.240,26.41
2023-04-01 03:00,36.237,23.840,56.250,26.41
2023-04-01 04:00,,,,
2023-04-01 05:00,36.230,23.838,56.230,26.40
2023-04-01 07:00,36.237,23.840,56.250,26.41
2023-04-01 08:00,36.238,23.843,56.240,26.40
2023-04-01 09:00,,,,
2023-04-01 10:00,,,,
2023-04-01 11:00,36.239,23.851,56.220,26.38
2023-04-01 12:00,36.239,23.851,56.220,26.38
2023-04-01 14:00,,,,
2023-04-01 15:00,36.237,23.840,56.250,26.41
2023-04-01 16:00,36.243,23.838,56.280,26.43
2023-04-01 17:00,36.242,23.834,56.290,26.44
2023-04-01 18:00,36.239,23.813,56.350,26.50
2023-04-01 19:00,36.244,23.807,56.390,26.53
2023-04-01 20:00,36.244,23.807,56.390,26.53
2023-04-01 21:00,36.232,23.811,56.330,26.49
2023-04-01 22:00,36.234,23.822,56.300,26.46
2023-04-01 23:00,36.234,23.825,56.290,26.45
2023-04-02 00:00,36.242,23.834,56.290,26.44
2023-04-02 01:00,36.243,23.838,56.280,26.43
2023-04-02 02:00,,,,
2023-04-02 03:00,36.228,23.827,56.260,26.43
2023-04-02 04:00,36.238,23.843,56.240,26.40
2023-04-02 05:00,,,,
2023-04-02 06:00,,,,
2023-04-02 07:00,36.238,23.847,56.230,26.39
2023-04-02 08:00,36.238,23.843,56.240,26.40
2023-04-02 09:00,36.245,23.853,56.240,26.39
2023-04-02 10:00,,,,
2023-04-02 11:00,,,,
2023-04-02 12:00,36.245,23.853,56.240,26.39
2023-04-02 13:00,36.244,23.845,56.260,26.41
2023-04-02 14:00,36.250,23.844,56.290,26.43
2023-04-02 15:00,36.254,23.831,56.350,26.48
2023-04-02 16:00,36.244,23.807,56.390,26.53
2023-04-02 17:00,36.243,23.800,56.410,26.55
2023-04-02 18:00,36.248,23.794,56.450,26.58
2023-04-02 19:00,36.167,23.727,56.360,26.60
2023-04-02 20:00,36.130,23.693,56.330,26.62
2023-04-02 21:00,,,,
2023-04-02 22:00,36.077,23.681,56.160,26.53
2023-04-02 23:00,36.100,23.701,56.180,26.52
2023-04-03 00:00,36.108,23.711,56.180,26.51
2023-04-03 01:00,36.101,23.709,56.160,26.50
2023-04-03 02:00,36.080,23.700,56.110,26.48
2023-04-03 03:00,36.088,23.705,56.120,26.48
2023-04-03 04:00,36.109,23.718,56.160,26.49
2023-04-03 05:00,36.111,23.729,56.130,26.46
2023-04-03 06:00,,,,
2023-04-03 07:00,36.098,23.732,56.070,26.42
2023-04-03 08:00,36.007,23.679,55.890,26.37
2023-04-03 09:00,35.978,23.660,55.840,26.36
2023-04-03 10:00,35.971,23.655,55.830,26.36
2023-04-03 11:00,35.957,23.644,55.810,26.36
2023-04-03 12:00,35.963,23.646,55.830,26.37
2023-04-03 13:00,35.955,23.637,55.830,26.38
2023-04-03 14:00,35.947,23.624,55.840,26.40
2023-04-03 15:00,35.953,23.619,55.880,26.43
2023-04-03 16:00,,,,
2023-04-03 17:00,35.948,23.590,55.960,26.51
2023-04-03 18:00,35.945,23.569,56.020,26.57
2023-04-03 19:00,35.943,23.558,56.050,26.60
2023-04-03 20:00,35.929,23.551,56.020,26.59
2023-04-03 21:00,35.930,23.558,56.000,26.57
2023-04-03 22:00,35.924,23.556,55.980,26.56
2023-04-03 23:00,35.940,23.578,55.970,26.53
2023-04-04 00:00,35.933,23.576,55.950,26.52
2023-04-04 01:00,35.934,23.579,55.940,26.51
2023-04-04 02:00,35.934,23.583,55.930,26.50
2023-04-04 03:00,35.943,23.596,55.920,26.48
2023-04-04 04:00,35.950,23.605,55.920,26.47
2023-04-04 05:00,,,,
2023-04-04 06:00,35.959,23.621,55.900,26.44
2023-04-04 07:00,35.959,23.617,55.910,26.45
2023-04-04 08:00,35.968,23.634,55.890,26.42
2023-04-04 09:00,35.968,23.634,55.890,26.42
2023-04-04 10:00,35.962,23.639,55.850,26.39
2023-04-04 11:00,35.920,23.617,55.760,26.36
2023-04-04 12:00,,,,
2023-04-04 13:00,35.904,23.595,55.770,26.39
2023-04-04 14:00,,,,
2023-04-04 15:00,35.901,23.574,55.830,26.45
2023-04-04 16:00,35.891,23.550,55.870,26.50
2023-04-04 17:00,35.881,23.527,55.910,26.55
2023-04-04 18:00,35.829,23.482,55.860,26.57
2023-04-04 19:00,35.844,23.492,55.880,26.57
2023-04-04 20:00,35.815,23.471,55.840,26.57
2023-04-04 21:00,35.785,23.445,55.810,26.58
2023-04-04 22:00,35.788,23.463,55.760,26.53
2023-04-04 23:00,35.782,23.468,55.720,26.50
2023-04-05 00:00,35.783,23.472,55.710,26.49
2023-04-05 01:00,35.790,23.477,55.720,26.49
2023-04-05 02:00,35.798,23.490,55.710,26.47
2023-04-05 03:00,35.791,23.484,55.700,26.47
2023-04-05 04:00,,,,
2023-04-05 05:00,,,,
2023-04-05 06:00,35.794,23.502,55.650,26.42
2023-04-05 07:00,35.793,23.499,55.660,26.43
2023-04-05 08:00,,,,
2023-04-05 09:00,35.794,23.502,55.650,26.42
2023-04-05 10:00,35.795,23.509,55.630,26.40
2023-04-05 11:00,35.802,23.518,55.630,26.39
2023-04-05 12:00,35.767,23.495,55.570,26.38
2023-04-05 13:00,35.772,23.486,55.620,26.42
2023-04-05 14:00,35.763,23.470,55.640,26.45
2023-04-05 15:00,35.755,23.457,55.650,26.47
2023-04-05 16:00,35.749,23.459,55.620,26.45
2023-04-05 17:00,35.741,23.453,55.610,26.45
2023-04-05 18:00,35.741,23.453,55.610,26.45
2023-04-05 19:00,,,,
2023-04-05 20:00,35.719,23.430,55.600,26.47
2023-04-05 21:00,35.719,23.433,55.590,26.46
2023-04-05 22:00,,,,
2023-04-05 23:00,35.713,23.435,55.560,26.44
2023-04-06 00:00,35.713,23.439,55.550,26.43
2023-04-06 01:00,35.721,23.444,55.560,26.43
2023-04-06 02:00,35.721,23.448,55.550,26.42
2023-04-06 03:00,,,,
2023-04-06 04:00,,,,
2023-04-06 05:00,,,,
2023-04-06 06:00,35.723,23.462,55.510,26.38
2023-04-06 08:00,35.722,23.455,55.530,26.40
2023-04-06 10:00,,,,
2023-04-06 11:00,,,,
2023-04-06 12:00,,,,
2023-04-06 13:00,35.739,23.480,55.510,26.36
2023-04-06 14:00,35.745,23.482,55.530,26.37
2023-04-06 15:00,35.744,23.471,55.560,26.40
2023-04-06 16:00,35.735,23.455,55.580,26.43
2023-04-06 17:00,35.729,23.457,55.550,26.41
2023-04-06 19:00,35.729,23.457,55.550,26.41
2023-04-06 20:00,35.729,23.457,55.550,26.41
2023-04-06 21:00,35.728,23.453,55.560,26.42
2023-04-06 22:00,35.758,23.478,55.590,26.41
2023-04-06 23:00,,,,
2023-04-07 00:00,,,,
2023-04-07 01:00,35.702,23.449,55.470,26.37
2023-04-07 02:00,35.710,23.458,55.470,26.36
2023-04-07 03:00,35.717,23.463,55.480,26.36
2023-04-07 04:00,35.711,23.468,55.440,26.33
2023-04-07 05:00,,,,
2023-04-07 06:00,35.739,23.483,55.500,26.35
2023-04-07 07:00,35.733,23.485,55.470,26.33
2023-04-07 08:00,35.711,23.468,55.440,26.33
2023-04-07 09:00,35.698,23.465,55.400,26.31
2023-04-07 10:00,35.683,23.454,55.380,26.31
2023-04-07 11:00,35.669,23.443,55.360,26.31
2023-04-07 12:00,,,,
2023-04-07 13:00,35.661,23.434,55.360,26.32
2023-04-07 14:00,35.660,23.427,55.380,26.34
2023-04-07 15:00,35.661,23.434,55.360,26.32
2023-04-07 16:00,35.668,23.436,55.380,26.33
2023-04-07 17:00,35.663,23.400,55.480,26.43
2023-04-07 18:00,35.668,23.392,55.530,26.47
2023-04-07 19:00,35.666,23.381,55.560,26.50
2023-04-07 20:00,35.653,23.381,55.510,26.47
2023-04-07 21:00,35.637,23.356,55.530,26.51
2023-04-07 22:00,,,,
2023-04-07 23:00,35.574,23.324,55.390,26.46
2023-04-08 00:00,35.555,23.325,55.310,26.41
2023-04-08 01:00,35.541,23.314,55.290,26.41
2023-04-08 02:00,35.533,23.309,55.280,26.41
2023-04-08 03:00,35.527,23.314,55.240,26.38
2023-04-08 04:00,35.514,23.310,55.200,26.36
2023-04-08 05:00,35.528,23.321,55.220,26.36
2023-04-08 06:00,,,,
2023-04-08 07:00,35.507,23.308,55.180,26.35
2023-04-08 08:00,35.514,23.314,55.190,26.35
2023-04-08 09:00,35.522,23.323,55.190,26.34
2023-04-08 10:00,35.558,23.346,55.250,26.35
2023-04-08 11:00,35.566,23.359,55.240,26.33
2023-04-08 12:00,35.567,23.362,55.230,26.32
2023-04-08 13:00,35.517,23.335,55.130,26.29
2023-04-08 14:00,,,,
2023-04-08 15:00,35.509,23.322,55.140,26.31
2023-04-08 16:00,35.514,23.314,55.190,26.35
2023-04-08 17:00,35.477,23.276,55.170,26.38
2023-04-08 18:00,35.445,23.233,55.190,26.44
2023-04-08 19:00,,,,
2023-04-08 20:00,35.435,23.206,55.240,26.50
2023-04-08 21:00,35.450,23.224,55.240,26.48
2023-04-08 22:00,35.458,23.230,55.250,26.48
2023-04-08 23:00,35.468,23.260,55.190,26.41
2023-04-09 00:00,35.453,23.245,55.180,26.42
2023-04-09 01:00,,,,
2023-04-09 02:00,35.439,23.238,55.150,26.41
2023-04-09 03:00,35.432,23.236,55.130,26.40
2023-04-09 04:00,35.440,23.241,55.140,26.40
2023-04-09 05:00,35.440,23.241,55.140,26.40
2023-04-09 06:00,35.440,23.241,55.140,26.40
2023-04-09 07:00,35.433,23.243,55.110,26.38
2023-04-09 08:00,35.426,23.234,55.110,26.39
2023-04-09 09:00,35.426,23.241,55.090,26.37
2023-04-09 10:00,35.434,23.247,55.100,26.37
2023-04-09 11:00,35.441,23.255,55.100,26.36
2023-04-09 12:00,35.456,23.270,55.110,26.35
2023-04-09 13:00,35.448,23.257,55.120,26.37
2023-04-09 14:00,35.387,23.189,55.110,26.44
2023-04-09 15:00,35.370,23.154,55.160,26.51
2023-04-09 16:00,35.360,23.131,55.200,26.56
2023-04-09 17:00,35.358,23.114,55.250,26.61
2023-04-09 18:00,35.357,23.107,55.270,26.63
2023-04-09 19:00,,,,
2023-04-09 20:00,35.365,23.119,55.260,26.61
2023-04-09 21:00,35.366,23.122,55.250,26.60
2023-04-09 22:00,35.376,23.152,55.190,26.53
2023-04-09 23:00,35.393,23.181,55.160,26.48
2023-04-10 00:00,35.383,23.158,55.200,26.53
2023-04-10 01:00,35.390,23.160,55.220,26.54
2023-04-10 02:00,35.396,23.155,55.260,26.57
2023-04-10 03:00,35.389,23.153,55.240,26.56
2023-04-10 04:00,35.390,23.160,55.220,26.54
2023-04-10 05:00,35.397,23.165,55.230,26.54
2023-04-10 06:00,35.398,23.169,55.220,26.53
2023-04-10 07:00,35.398,23.172,55.210,26.52
2023-04-10 08:00,35.405,23.178,55.220,26.52
2023-04-10 09:00,35.412,23.183,55.230,26.52
2023-04-10 10:00,35.406,23.181,55.210,26.51
2023-04-10 11:00,35.393,23.188,55.140,26.46
2023-04-10 12:00,35.407,23.195,55.170,26.47
2023-04-10 13:00,35.429,23.208,55.210,26.48
2023-04-10 14:00,35.416,23.157,55.330,26.61
2023-04-10 15:00,35.412,23.132,55.400,26.68
2023-04-10 16:00,,,,
2023-04-10 18:00,35.423,23.112,55.510,26.77
2023-04-10 19:00,35.427,23.096,55.580,26.83
2023-04-10 20:00,35.423,23.115,55.500,26.76
2023-04-10 21:00,35.431,23.128,55.490,26.74
2023-04-10 22:00,35.440,23.147,55.460,26.70
2023-04-10 23:00,35.442,23.161,55.420,26.66
2023-04-11 00:00,35.444,23.175,55.380,26.62
2023-04-11 01:00,35.467,23.202,55.380,26.59
2023-04-11 02:00,35.462,23.163,55.490,26.70
2023-04-11 03:00,35.469,23.172,55.490,26.69
2023-04-11 04:00,,,,
2023-04-11 05:00,,,,
2023-04-11 06:00,35.466,23.192,55.410,26.62
2023-04-11 07:00,35.464,23.181,55.440,26.65
2023-04-11 08:00,35.457,23.176,55.430,26.65
2023-04-11 09:00,35.459,23.193,55.380,26.60
2023-04-11 10:00,35.451,23.181,55.390,26.62
2023-04-11 11:00,35.457,23.179,55.420,26.64
2023-04-11 12:00,35.464,23.181,55.440,26.65
2023-04-11 13:00,35.471,23.183,55.460,26.66
2023-04-11 14:00,35.475,23.164,55.540,26.73
2023-04-11 15:00,35.464,23.133,55.600,26.80
2023-04-11 16:00,35.461,23.112,55.660,26.86
2023-04-11 17:00,35.458,23.084,55.740,26.94
2023-04-11 18:00,35.443,23.025,55.880,27.09
2023-04-11 19:00,35.436,23.020,55.870,27.09
2023-04-11 20:00,35.440,23.048,55.790,27.01
2023-04-11 21:00,35.442,23.066,55.740,26.96
2023-04-11 22:00,35.445,23.087,55.680,26.90
2023-04-11 23:00,35.448,23.108,55.620,26.84
2023-04-12 00:00,35.451,23.130,55.560,26.78
2023-04-12 01:00,35.453,23.144,55.520,26.74
2023-04-12 02:00,35.435,23.105,55.580,26.82
2023-04-12 03:00,35.441,23.107,55.600,26.83
2023-04-12 04:00,35.442,23.110,55.590,26.82
2023-04-12 05:00,35.441,23.107,55.600,26.83
2023-04-12 06:00,35.449,23.119,55.590,26.81
2023-04-12 07:00,35.449,23.116,55.600,26.82
2023-04-12 08:00,35.457,23.128,55.590,26.80
2023-04-12 09:00,35.459,23.139,55.560,26.77
2023-04-12 10:00,35.467,23.151,55.550,26.75
2023-04-12 11:00,,,,
2023-04-12 12:00,,,,
2023-04-12 13:00,35.459,23.146,55.540,26.75
2023-04-12 14:00,35.451,23.133,55.550,26.77
2023-04-12 15:00,35.442,23.114,55.580,26.81
2023-04-12 16:00,35.439,23.089,55.650,26.88
2023-04-12 17:00,35.454,23.059,55.810,27.01
2023-04-12 18:00,35.445,23.039,55.840,27.05
2023-04-12 19:00,35.451,23.034,55.880,27.08
2023-04-12 20:00,35.442,23.018,55.900,27.11
2023-04-12 21:00,35.444,23.032,55.860,27.07
2023-04-12 22:00,35.439,23.041,55.810,27.03
2023-04-12 23:00,35.450,23.075,55.740,26.95
2023-04-13 00:00,35.454,23.103,55.660,26.87
2023-04-13 01:00,35.457,23.124,55.600,26.81
2023-04-13 02:00,35.466,23.144,55.570,26.77
2023-04-13 03:00,35.482,23.165,55.560,26.74
2023-04-13 04:00,35.472,23.146,55.590,26.78
2023-04-13 05:00,,,,
2023-04-13 06:00,35.486,23.153,55.620,26.79
2023-04-13 07:00,35.486,23.153,55.620,26.79
2023-04-13 08:00,35.488,23.167,55.580,26.75
2023-04-13 09:00,35.488,23.164,55.590,26.76
2023-04-13 10:00,35.488,23.164,55.590,26.76
2023-04-13 11:00,35.488,23.167,55.580,26.75
2023-04-13 12:00,35.488,23.164,55.590,26.76
2023-04-13 13:00,35.501,23.164,55.640,26.79
2023-04-13 14:00,35.506,23.155,55.690,26.83
2023-04-13 15:00,,,,
2023-04-13 17:00,35.505,23.104,55.860,26.99
2023-04-13 18:00,35.509,23.084,55.940,27.06
2023-04-13 19:00,35.515,23.079,55.980,27.09
2023-04-13 20:00,35.508,23.077,55.960,27.08
2023-04-13 21:00,35.515,23.079,55.980,27.09
2023-04-13 22:00,35.524,23.102,55.940,27.04
2023-04-13 23:00,35.534,23.122,55.910,27.00
2023-04-14 00:00,35.541,23.131,55.910,26.99
2023-04-14 01:00,35.536,23.140,55.860,26.95
2023-04-14 02:00,35.525,23.154,55.770,26.88
2023-04-14 03:00,35.527,23.168,55.730,26.84
2023-04-14 04:00,35.529,23.182,55.690,26.80
2023-04-14 05:00,,,,
2023-04-14 06:00,35.530,23.193,55.660,26.77
2023-04-14 07:00,35.523,23.187,55.650,26.77
2023-04-14 08:00,35.531,23.196,55.650,26.76
2023-04-14 09:00,35.539,23.205,55.650,26.75
2023-04-14 10:00,35.539,23.209,55.640,26.74
2023-04-14 12:00,35.539,23.209,55.640,26.74
2023-04-14 13:00,35.538,23.198,55.670,26.77
2023-04-14 14:00,35.561,23.181,55.820,26.88
2023-04-14 15:00,35.563,23.147,55.940,26.99
2023-04-14 16:00,35.565,23.117,56.050,27.09
2023-04-14 17:00,35.562,23.099,56.100,27.14
2023-04-14 18:00,35.560,23.084,56.140,27.18
2023-04-14 19:00,,,,
2023-04-14 20:00,35.556,23.052,56.230,27.27
2023-04-14 21:00,35.566,23.075,56.190,27.22
2023-04-14 22:00,35.568,23.090,56.150,27.18
2023-04-14 23:00,35.570,23.108,56.100,27.13
2023-04-15 00:00,35.571,23.115,56.080,27.11
2023-04-15 01:00,35.580,23.131,56.060,27.08
2023-04-15 02:00,35.581,23.138,56.040,27.06
2023-04-15 03:00,35.575,23.140,56.010,27.04
2023-04-15 04:00,,,,
2023-04-15 05:00,35.541,23.079,56.080,27.15
2023-04-15 06:00,35.551,23.106,56.030,27.09
2023-04-15 07:00,,,,
2023-04-15 08:00,35.547,23.129,55.940,27.01
2023-04-15 09:00,35.548,23.133,55.930,27.00
2023-04-15 10:00,35.556,23.145,55.920,26.98
2023-04-15 11:00,35.556,23.145,55.920,26.98
2023-04-15 12:00,35.555,23.138,55.940,27.00
2023-04-15 13:00,35.563,23.147,55.940,26.99
2023-04-15 14:00,35.554,23.131,55.960,27.02
2023-04-15 15:00,35.561,23.133,55.980,27.03
2023-04-15 16:00,35.561,23.092,56.120,27.16
2023-04-15 17:00,35.553,23.075,56.140,27.19
2023-04-15 18:00,35.560,23.084,56.140,27.18
2023-04-15 19:00,35.569,23.056,56.270,27.29
2023-04-15 20:00,35.569,23.056,56.270,27.29
2023-04-15 21:00,35.569,23.052,56.280,27.30
2023-04-15 22:00,35.571,23.066,56.240,27.26
2023-04-15 23:00,35.556,23.052,56.230,27.27
2023-04-16 00:00,35.574,23.092,56.170,27.19
2023-04-16 01:00,35.576,23.102,56.140,27.16
2023-04-16 02:00,35.577,23.109,56.120,27.14
2023-04-16 03:00,35.578,23.117,56.100,27.12
2023-04-16 04:00,,,,
2023-04-16 06:00,35.545,23.066,56.140,27.20
2023-04-16 07:00,,,,
2023-04-16 08:00,,,,
2023-04-16 09:00,35.557,23.104,56.060,27.11
2023-04-16 10:00,35.565,23.117,56.050,27.09
2023-04-16 11:00,35.564,23.109,56.070,27.11
2023-04-16 12:00,35.556,23.097,56.080,27.13
2023-04-16 13:00,35.563,23.106,56.080,27.12
2023-04-16 14:00,35.570,23.108,56.100,27.13
2023-04-16 15:00,35.576,23.106,56.130,27.15
2023-04-16 16:00,35.568,23.093,56.140,27.17
2023-04-16 17:00,35.568,23.093,56.140,27.17
2023-04-16 18:00,35.580,23.090,56.200,27.21
2023-04-16 19:00,35.572,23.077,56.210,27.23
2023-04-16 20:00,35.571,23.070,56.230,27.25